Overview Statistics Trail Chart Weather Telemetry Raw packets
 

This is the latest recevied weather packets stored in our database for station/object S51UL-6. If no packets are shown the sender has not sent any weather packets the latest 10 day(s).

<< 4 5 6 7 8 9 10 >>
Time Temp. Humidity Pressure Rain* Wind** Luminosity Snow
1788636627 16.11° C 88% 1023 hPa 216.66 mm - - -
1788636327 16.11° C 87% 1022.7 hPa 232.16 mm - - -
1788636028 16.11° C 86% 1022.6 hPa 232.16 mm - - -
1788635727 16.67° C 86% 1022.7 hPa 233.17 mm - - -
1788635427 16.67° C 86% 1022.5 hPa 231.14 mm - - -
1788634827 16.67° C 86% 1022.7 hPa 253.75 mm - - -
1788634228 16.67° C 86% 1022.5 hPa 215.14 mm - - -
1788633928 16.67° C 86% 1022.4 hPa 253.75 mm - - -
1788633627 17.22° C 85% 1022.4 hPa 253.75 mm - - -
1788632127 17.22° C 85% 1021.9 hPa 250.95 mm - - -
1788631827 17.78° C 85% 1022 hPa 250.95 mm - - -
1788631528 17.78° C 85% 1021.8 hPa 253.75 mm - - -
1788630328 18.33° C 85% 1021.5 hPa 253.75 mm - - -
1788629428 18.33° C 83% 1021.2 hPa 231.65 mm - - -
1788629128 18.89° C 83% 1021.1 hPa 248.67 mm - - -
1788628528 18.89° C 83% 1021 hPa 208.79 mm - - -
1788628229 18.89° C 82% 1020.8 hPa 188.21 mm - - -
1788627628 19.44° C 82% 1020.8 hPa 147.32 mm - - -
1788627328 19.44° C 82% 1020.7 hPa 147.32 mm - - -
1788627031 20° C 82% 1020.5 hPa 108.2 mm - - -
1788626730 20° C 82% 1020.5 hPa 108.2 mm - - -
1788626428 20° C 81% 1020.4 hPa 65.28 mm - - -
1788625828 20° C 81% 1020.6 hPa 27.94 mm - - -
1788625529 20° C 81% 1020.6 hPa 9.91 mm - - -
1788624629 20° C 81% 1020.5 hPa 0 mm - - -

* Rain latest hour (hover to see other rain measurements)
** Current wind speed in m/s (hover to see current wind gust speed)